Regional Weather Roundup
Issued by NWS

Home | Current Version | Previous Version | Graphics & Text | Print | Product List | Glossary On
Versions: 1 2 3 4 5 6 7 8 9 10 11 12 13 14 15 16 17 18 19 20 21 22 23 24 25 26 27 28 29 30 31 32 33 34 35 36 37 38 39 40 41 42 43 44 45 46 47 48 49 50
000
ASUS43 KLSX 190257
RWRMO

WEATHER SUMMARY FOR MISSOURI
NATIONAL WEATHER SERVICE SPRINGFIELD MO
900 PM CST SUN FEB 18 2018

NOTE: "FAIR" INDICATES FEW OR NO CLOUDS BELOW 12,000 FEET WITH NO
       SIGNIFICANT WEATHER AND/OR OBSTRUCTIONS TO VISIBILITY.
       CURRENT SKY AND/OR WEATHER CONDITIONS ARE NOT AVAILABLE FOR
       CHILLICOTHE AND FARMINGTON.

MOZ001>031-035>038-043-044-053-054-190400-
...NORTHERN AND WESTERN MISSOURI...

CITY           SKY/WX    TMP DP  RH WIND       PRES   REMARKS
KANSAS CTY INT CLOUDY    54  44  69 SW18G26   29.69S
LEE`S SUMMIT   CLOUDY    55  45  68 S28G35    29.71F
ST JOSEPH      CLOUDY    54  44  69 S14G25    29.67S
CHILLICOTHE      N/A     52  32  46 S10       29.73F

$$
MOZ066>068-077>081-088>096-101>105-190400-
...SOUTHWEST MISSOURI...

CITY           SKY/WX    TMP DP  RH WIND       PRES   REMARKS
SPRINGFIELD    CLOUDY    50  45  83 S18G33    29.83F
JOPLIN         CLOUDY    55  52  89 S28G37    29.80R
BRANSON        CLOUDY    48  46  93 S13       29.92S

$$
MOZ032>034-039>042-045>050-055>058-069>072-190400-
...CENTRAL MISSOURI...

CITY           SKY/WX    TMP DP  RH WIND       PRES   REMARKS
COLUMBIA       NOT AVBL
JEFFERSON CITY CLOUDY    51  36  56 S12       29.83F
ROLLA          MOCLDY    47  40  76 S15       29.86F
SEDALIA        CLOUDY    54  41  61 S20       29.76F
WARRENSBURG    CLOUDY    54  34  47 S13       29.75R

$$
MOZ051-052-059>065-190400-
...EAST CENTRAL MISSOURI...

CITY           SKY/WX    TMP DP  RH WIND       PRES   REMARKS
ST LOUIS INTL  MOCLDY    49  36  61 S15G22    29.91F

$$
MOZ072>076-082>087-097>100-106>115-190400-
...SOUTH CENTRAL AND SOUTHEAST MISSOURI...

CITY           SKY/WX    TMP DP  RH WIND       PRES   REMARKS
CAPE GIRARDEAU CLOUDY    51  38  60 S9        30.02S
POPLAR BLUFF   CLOUDY    51  46  83 S8        30.02S
WEST PLAINS    CLOUDY    47  43  86 S13       29.96S

$$


USA.gov is the U.S. government's official web portal to all federal, state and local government web resources and services.